Stations météo

réclame
Mon MeteoGroup
Culdrose, Grande-Bretagne (3809): Température de l'air & dewpoint: 12.11.2018 04:00:00 - 18.11.2018 04:00:00 (GMT)Culdrose, Grande-Bretagne (3809): Vitesse du vent & gusts: 12.11.2018 04:00:00 - 18.11.2018 04:00:00 (GMT)Culdrose, Grande-Bretagne (3809): Direction du vent: 12.11.2018 04:00:00 - 18.11.2018 04:00:00 (GMT)Culdrose, Grande-Bretagne (3809): reduced air pressure: 12.11.2018 04:00:00 - 18.11.2018 04:00:00 (GMT)Culdrose, Grande-Bretagne (3809): visibility: 12.11.2018 04:00:00 - 18.11.2018 04:00:00 (GMT)Culdrose, Grande-Bretagne (3809): Quantités de précipitations: 12.11.2018 04:00:00 - 18.11.2018 04:00:00 (GMT)
Date & Time tt [°C] td [°C] ff [km/h] ff [knt] fx [km/h] fx [knt] dd ppp [hPa] vv [km] rr [mm]
18.11.2018 04:00:00 10,2 6,2 52 28 74 40 E 1020,1 20 0,0
18.11.2018 03:00:00 9,1 5,2 52 28 76 41 E 1020,1 19 0,0
18.11.2018 02:00:00 9,2 5,4 57 31 72 39 E 1020,1 18 0,0
18.11.2018 01:00:00 8,8 5,2 61 33 76 41 E 1020,0 17 0,0
18.11.2018 00:00:00 9,6 6,2 52 28 80 43 E 1020,2 16 0,0
17.11.2018 23:00:00 10,1 6,8 52 28 80 43 E 1020,1 10 0,0
17.11.2018 22:00:00 10,5 7,0 59 32 81 44 E 1019,6 19 0,0
17.11.2018 21:00:00 10,6 7,2 55 30 83 45 E 1019,3 17 0,0
17.11.2018 20:00:00 10,8 7,0 61 33 83 45 E 1019,0 19 0,0
17.11.2018 19:00:00 10,6 7,3 63 34 78 42 E 1019,2 19 0,0
17.11.2018 18:00:00 10,5 7,2 61 33 78 42 E 1019,3 19 0,0
17.11.2018 17:00:00 10,5 7,7 55 30 76 41 E 1019,1 18 0,0
17.11.2018 16:00:00 11,0 7,9 50 27 72 39 E 1019,5 17 0,0
17.11.2018 15:00:00 10,9 7,8 57 31 72 39 E 1019,7 16 0,0
17.11.2018 14:00:00 11,3 8,5 48 26 65 35 E 1020,2 12 0,0
17.11.2018 13:00:00 11,2 8,6 44 24 63 34 E 1020,9 13 0,0
17.11.2018 12:00:00 11,8 9,4 46 25 63 34 E 1021,0 10 0,0
17.11.2018 11:00:00 12,2 10,1 44 24 57 31 E 1021,3 10 0,0
17.11.2018 10:00:00 12,2 10,5 46 25 59 32 E 1021,5 14 0,0
17.11.2018 09:00:00 12,0 10,3 46 25 59 32 E 1021,4 15 0,0
17.11.2018 08:00:00 11,9 10,3 42 23 61 33 E 1021,3 13 0,0
17.11.2018 07:00:00 11,6 10,5 41 22 59 32 E 1021,1 10 0,0
17.11.2018 06:00:00 11,7 11,0 41 22 55 30 E 1020,7 5 0,0
17.11.2018 05:00:00 11,7 11,2 42 23 61 33 E 1020,3 3,5 0,0
17.11.2018 04:00:00 12,2 11,4 39 21 54 29 E 1020,4 6 0,0
17.11.2018 03:00:00 12,2 11,5 39 21 57 31 E 1020,5 5 0,0
17.11.2018 02:00:00 12,2 11,6 39 21 52 28 E 1020,7 4,7 0,0
17.11.2018 01:00:00 12,1 11,7 34 18 48 26 E 1020,6 4,0 0,0
17.11.2018 00:00:00 12,2 11,6 37 20 50 27 ESE 1020,7 4,3 0,0
16.11.2018 23:00:00 12,3 11,7 39 21 55 30 ESE 1020,4 4,6 0,0
16.11.2018 22:00:00 12,3 11,8 39 21 54 29 ESE 1020,3 4,3 0,0
16.11.2018 21:00:00 12,3 11,8 41 22 54 29 ESE 1020,1 6 0,0
16.11.2018 20:00:00 12,3 11,9 35 19 48 26 ESE 1020,1 2,2 0,0
16.11.2018 19:00:00 12,3 11,8 34 18 46 25 E 1020,2 6 0,0
16.11.2018 18:00:00 12,3 11,8 34 18 52 28 E 1020,2 6 0,0
16.11.2018 17:00:00 12,5 11,9 34 18 46 25 E 1020,1 6 0,0
16.11.2018 16:00:00 12,6 11,8 35 19 46 25 ESE 1020,0 8 0,0
16.11.2018 15:00:00 12,7 11,9 35 19 - - ESE 1020,3 6 0,0
16.11.2018 14:00:00 13,2 12,0 31 17 - - ESE 1020,5 10 0,0
16.11.2018 13:00:00 13,0 11,4 26 14 - - ESE 1020,8 12 0,0
16.11.2018 12:00:00 12,7 11,0 28 15 - - ESE 1021,1 12 0,0
16.11.2018 11:00:00 13,0 11,1 22 12 - - ESE 1021,4 6 0,0
16.11.2018 10:00:00 13,2 11,1 16 9 - - ESE 1021,4 6 0,0
16.11.2018 09:00:00 12,6 10,9 13 7 - - ESE 1021,5 5 0,0
16.11.2018 08:00:00 12,4 11,3 15 8 - - ESE 1021,2 4,0 0,0
16.11.2018 07:00:00 12,3 11,6 9 5 - - ESE 1020,8 4,0 0,0
16.11.2018 06:00:00 12,2 11,3 11 6 - - ESE 1020,3 3,5 0,0
16.11.2018 05:00:00 12,2 11,1 13 7 - - SE 1019,9 4,0 0,0
16.11.2018 04:00:00 12,2 11,3 13 7 - - SSE 1019,9 4,0 0,0
16.11.2018 03:00:00 12,3 11,5 15 8 - - SE 1019,5 4,0 0,0
16.11.2018 02:00:00 12,2 11,2 16 9 - - SE 1019,9 8 0,0
16.11.2018 01:00:00 12,2 11,2 11 6 - - SSE 1019,9 8 0,0
16.11.2018 00:00:00 12,2 11,1 13 7 - - SSE 1020,1 8 0,0
15.11.2018 23:00:00 12,1 11,1 18 10 - - SE 1019,2 8 0,0
15.11.2018 22:00:00 12,1 11,5 16 9 - - SSE 1018,9 6 0,0
15.11.2018 21:00:00 12,1 11,5 13 7 - - SSE 1018,9 6 0,0
15.11.2018 20:00:00 11,9 11,5 9 5 - - S 1018,3 2,5 0,0
15.11.2018 19:00:00 11,8 11,5 11 6 - - S 1017,8 2,0 0,0
15.11.2018 18:00:00 11,8 11,5 9 5 - - S 1017,5 2,0 0,2
15.11.2018 17:00:00 11,8 11,5 11 6 - - S 1017,5 2,8 0,0
15.11.2018 16:00:00 11,7 11,3 16 9 - - S 1017,2 2,0 0,0
15.11.2018 15:00:00 11,7 11,5 13 7 - - S 1016,8 2,0 0,0
15.11.2018 14:00:00 11,1 10,8 13 7 - - S 1017,4 0,8 0,0
15.11.2018 13:00:00 10,9 10,5 15 8 - - SSE 1017,4 0,8 0,0
15.11.2018 12:00:00 10,8 10,2 22 12 - - SE 1017,1 0,8 0,0
15.11.2018 11:00:00 11,6 10,2 21 11 - - SE 1017,3 5 0,0
15.11.2018 10:00:00 11,9 10,8 18 10 - - SE 1017,1 8 0,0
15.11.2018 09:00:00 11,7 10,7 16 9 - - SE 1017,1 3,5 0,0
15.11.2018 08:00:00 11,5 10,8 13 7 - - SSE 1017,1 3,5 0,0
15.11.2018 07:00:00 10,9 10,3 13 7 - - SSE 1016,8 4,0 0,0
15.11.2018 06:00:00 11,0 10,3 16 9 - - SE 1016,5 10 0,0
15.11.2018 05:00:00 11,3 10,5 18 10 - - SSE 1016,5 10 0,0
15.11.2018 04:00:00 11,5 10,7 18 10 - - SSE 1016,7 10 0,0
15.11.2018 03:00:00 11,8 10,7 18 10 - - SSE 1016,8 10 0,0
15.11.2018 02:00:00 11,6 10,4 16 9 - - SSE 1017,2 10 0,0
15.11.2018 01:00:00 12,0 10,7 16 9 - - S 1017,4 10 0,0
15.11.2018 00:00:00 12,2 10,9 22 12 - - S 1017,4 14 0,0
14.11.2018 23:00:00 12,1 11,2 22 12 - - S 1017,4 10 0,0
14.11.2018 22:00:00 12,0 11,2 18 10 - - S 1017,5 10 0,0
14.11.2018 21:00:00 11,7 10,8 24 13 - - SSE 1017,6 10 0,0
14.11.2018 20:00:00 11,7 10,7 18 10 - - SSE 1017,7 10 0,0
14.11.2018 19:00:00 11,7 10,6 18 10 - - S 1017,6 14 0,0
14.11.2018 18:00:00 11,8 10,6 22 12 - - SSE 1017,4 12 0,0
14.11.2018 17:00:00 12,2 10,6 22 12 - - SSE 1017,0 10 0,0
14.11.2018 16:00:00 12,8 10,7 21 11 46 25 S 1017,3 10 0,0
14.11.2018 15:00:00 13,1 10,8 24 13 46 25 S 1017,5 10 0,0
14.11.2018 14:00:00 13,4 10,4 26 14 52 28 S 1017,8 10 0,0
14.11.2018 13:00:00 13,6 10,4 26 14 54 29 S 1018,2 20 0,0
14.11.2018 12:00:00 13,7 10,6 26 14 54 29 S 1018,4 10 0,0
14.11.2018 11:00:00 13,6 10,8 26 14 52 28 S 1019,0 10 0,0
14.11.2018 10:00:00 13,0 10,3 26 14 50 27 S 1019,1 10 0,0
14.11.2018 09:00:00 12,5 10,2 24 13 52 28 S 1019,1 18 0,0
14.11.2018 08:00:00 12,0 10,3 21 11 - - S 1019,0 10 0,0
14.11.2018 07:00:00 11,9 10,5 24 13 54 29 S 1018,6 10 0,0
14.11.2018 06:00:00 12,2 10,8 26 14 54 29 S 1018,9 10 0,0
14.11.2018 05:00:00 12,3 10,9 26 14 52 28 S 1019,0 10 0,0
14.11.2018 04:00:00 12,3 10,8 29 16 55 30 S 1019,1 10 0,0
14.11.2018 03:00:00 12,4 10,7 29 16 57 31 S 1019,4 10 0,0
14.11.2018 02:00:00 12,4 10,5 28 15 59 32 S 1019,9 10 0,0
14.11.2018 01:00:00 12,4 10,2 29 16 59 32 S 1020,4 10 0,0
14.11.2018 00:00:00 12,3 10,2 34 18 57 31 S 1020,8 10 0,0
13.11.2018 23:00:00 12,3 10,3 31 17 61 33 S 1021,0 16 0,0
13.11.2018 22:00:00 12,2 10,3 26 14 54 29 S 1021,4 10 0,0
13.11.2018 21:00:00 12,1 10,0 31 17 52 28 S 1021,6 18 0,0
13.11.2018 20:00:00 12,2 10,1 26 14 54 29 S 1021,8 10 0,0
13.11.2018 19:00:00 12,2 10,6 26 14 50 27 S 1021,9 18 0,0
13.11.2018 18:00:00 12,2 10,4 26 14 50 27 S 1022,1 10 0,0
13.11.2018 17:00:00 12,1 10,5 26 14 46 25 S 1022,1 18 0,0
13.11.2018 16:00:00 12,1 10,5 26 14 48 26 S 1021,9 10 0,0
13.11.2018 15:00:00 12,4 10,5 26 14 - - S 1022,0 10 0,0
13.11.2018 14:00:00 12,8 9,6 24 13 46 25 SSW 1022,2 10 0,0
13.11.2018 13:00:00 13,0 9,9 26 14 - - SSW 1022,3 10 0,0
13.11.2018 12:00:00 12,7 9,9 26 14 - - SSW 1022,5 10 0,0
13.11.2018 11:00:00 12,2 9,8 22 12 - - SSW 1022,4 10 0,0
13.11.2018 10:00:00 12,1 9,2 21 11 - - SW 1022,0 10 0,0
13.11.2018 09:00:00 11,6 9,1 28 15 - - SW 1021,5 10 0,0
13.11.2018 08:00:00 10,9 7,7 13 7 - - WSW 1020,4 10 0,0
13.11.2018 07:00:00 11,1 7,9 16 9 48 26 WSW 1019,7 18 0,0
13.11.2018 06:00:00 11,1 8,3 18 10 - - W 1018,9 10 0,0
13.11.2018 05:00:00 11,0 8,2 18 10 - - W 1018,0 18 0,0
13.11.2018 04:00:00 11,1 7,9 18 10 - - W 1016,9 18 0,0
13.11.2018 03:00:00 11,2 8,2 21 11 46 25 W 1016,2 10 0,0
13.11.2018 02:00:00 11,3 7,5 26 14 48 26 W 1015,5 10 0,0
13.11.2018 01:00:00 11,2 7,8 18 10 - - WSW 1014,6 18 0,0
13.11.2018 00:00:00 10,8 7,0 18 10 52 28 WSW 1013,8 10 0,0
12.11.2018 23:00:00 10,9 8,2 29 16 54 29 SW 1012,9 10 0,0
12.11.2018 22:00:00 10,9 8,2 31 17 57 31 SW 1012,3 10 0,0
12.11.2018 21:00:00 10,7 7,3 34 18 61 33 WSW 1011,6 20 0,0
12.11.2018 20:00:00 11,2 7,8 37 20 63 34 SW 1010,8 10 0,0
12.11.2018 19:00:00 10,8 7,9 35 19 57 31 SW 1010,2 10 0,0
12.11.2018 18:00:00 10,5 8,6 28 15 76 41 SW 1009,8 10 1,0
12.11.2018 17:00:00 11,8 8,7 35 19 68 37 SW 1009,2 8 0,0
12.11.2018 16:00:00 12,2 7,8 35 19 68 37 SW 1008,2 10 0,0
12.11.2018 15:00:00 12,8 8,7 39 21 65 35 SSW 1007,8 8 0,0
12.11.2018 14:00:00 12,9 8,7 35 19 61 33 SW 1007,4 10 0,0
12.11.2018 13:00:00 12,9 8,7 35 19 59 32 SSW 1007,0 20 0,0
12.11.2018 12:00:00 12,6 8,4 35 19 59 32 SSW 1007,1 18 0,0
12.11.2018 11:00:00 10,3 7,4 37 20 61 33 SW 1007,2 9 1,0
12.11.2018 10:00:00 12,7 9,1 31 17 54 29 SSW 1006,6 10 0,0
12.11.2018 09:00:00 12,6 9,6 31 17 54 29 SSW 1006,3 12 0,0
12.11.2018 08:00:00 11,7 8,4 31 17 54 29 SSW 1005,7 10 0,0
12.11.2018 07:00:00 11,6 8,6 29 16 52 28 SSW 1005,2 10 0,0
12.11.2018 06:00:00 11,7 9,0 28 15 52 28 SSW 1004,7 16 0,0
12.11.2018 05:00:00 11,9 9,5 26 14 48 26 SSW 1004,2 10 0,0
12.11.2018 04:00:00 11,7 9,4 26 14 46 25 SSW 1004,1 10 0,0

tt = Température de l'air
td = dewpoint
ff = Vitesse du vent
fx = gusts
dd = Direction du vent
ppp = reduced air pressure
vv = visibility
rr = Quantités de précipitations

stations d'obs. à proximité